{"data":{"norad_id":63119,"epoch":"2026-05-25T02:20:13.591392Z","epoch_age_seconds":69932,"freshness":"FRESH","line1":"1 63119U 25039R   26145.09737953  .00008264  00000+0  30942-3 0  9990","line2":"2 63119  42.9994 289.8988 0001073  39.5405 320.5524 15.27587080 69883","mean_motion":15.2758708,"eccentricity":0.0001073,"inclination_deg":42.9994,"raan_deg":289.8988,"arg_perigee_deg":39.5405,"mean_anomaly_deg":320.5524,"bstar":0.00030942,"rev_number":6988,"period_min":94.266311809864,"perigee_km":482.29169306117,"apogee_km":483.76409904786,"semimajor_km":6861.1648960545,"source":"CELESTRAK","updated_at":"2026-05-25T13:38:19.912050Z"}}